This is the latest recevied weather packets stored in our database for station/object K5NOC-12. If no packets are shown the sender has not sent any weather packets the latest 10 day(s).
| Time | Temp. | Humidity | Pressure | Rain* | Wind** | Luminosity | Snow |
|---|---|---|---|---|---|---|---|
| 1788153613 | 27.78° C | 38% | 1017 hPa | 0 mm | - | - | - |
| 1788152712 | 28.33° C | 37% | 1016.8 hPa | 0 mm | - | - | - |
| 1788151812 | 28.33° C | 36% | 1016.6 hPa | 0 mm | - | - | - |
| 1788150912 | 28.33° C | 36% | 1016.7 hPa | 0 mm | - | - | - |
| 1788150012 | 28.89° C | 36% | 1016.7 hPa | 0 mm | - | - | - |
| 1788149112 | 28.89° C | 35% | 1016.7 hPa | 0 mm | - | - | - |
| 1788148212 | 29.44° C | 35% | 1016.6 hPa | 0 mm | - | - | - |
| 1788147312 | 29.44° C | 35% | 1016.5 hPa | 0 mm | - | - | - |
| 1788146412 | 30° C | 34% | 1016.4 hPa | 0 mm | - | - | - |
| 1788145512 | 30° C | 34% | 1016.1 hPa | 0 mm | - | - | - |
| 1788144612 | 30.56° C | 34% | 1015.9 hPa | 0 mm | - | - | - |
| 1788143712 | 30.56° C | 33% | 1015.7 hPa | 0 mm | - | - | - |
| 1788142812 | 31.11° C | 33% | 1015.4 hPa | 0 mm | - | - | - |
| 1788141911 | 31.67° C | 32% | 1015.3 hPa | 0 mm | - | - | - |
| 1788141011 | 31.67° C | 31% | 1015.3 hPa | 0 mm | - | - | - |
| 1788140111 | 32.22° C | 30% | 1015.1 hPa | 0 mm | - | - | - |
| 1788139211 | 32.78° C | 29% | 1014.9 hPa | 0 mm | - | - | - |
| 1788138311 | 33.89° C | 28% | 1014.9 hPa | 0 mm | - | - | - |
| 1788137411 | 34.44° C | 27% | 1014.8 hPa | 0 mm | - | - | - |
| 1788136511 | 34.44° C | 26% | 1014.8 hPa | 0 mm | - | - | - |
| 1788135611 | 35° C | 26% | 1014.8 hPa | 0 mm | - | - | - |
| 1788134711 | 35.56° C | 26% | 1014.7 hPa | 0 mm | - | - | - |
| 1788133811 | 35.56° C | 25% | 1014.8 hPa | 0 mm | - | - | - |
| 1788132910 | 35.56° C | 25% | 1014.8 hPa | 0 mm | - | - | - |
| 1788132010 | 36.11° C | 25% | 1014.8 hPa | 0 mm | - | - | - |
* Rain latest hour (hover to see other rain measurements)
** Current wind speed in m/s (hover to see current wind gust speed)